Regional Weather Roundup
Issued by NWS

Home | Current Version | Previous Version | Text Only | Print | Product List | Glossary Off
Versions: 1 2 3 4 5 6 7 8 9 10 11 12 13 14 15 16 17 18 19 20 21 22 23 24 25 26 27 28 29 30 31 32 33 34 35 36 37 38 39 40 41 42 43 44 45 46 47 48 49 50

000
ASUS45 KCYS 220010
RWRWY

WYOMING REGIONAL WEATHER ROUNDUP
NATIONAL WEATHER SERVICE CHEYENNE WY
600 PM MDT MON JUL 21 2014

NOTE:  "FAIR" INDICATES FEW OR NO CLOUDS BELOW 12,000 FEET
WITH NO SIGNIFICANT WEATHER AND/OR OBSTRUCTIONS TO VISIBILITY.

WYZ001-220100-
YELLOWSTONE NATIONAL PARK

CITY           SKY/WX    TMP DP  RH WIND       PRES   REMARKS
LK YELLOWSTONE   N/A     59  44  57 MISG      30.33R
6HR MIN TEMP:  59; 6HR MAX TEMP:  72;

W YELLOWSTONE  NOT AVBL

$$
WYZ002>013-054>058-071-098>099-220100-
NORTHERN WYOMING

CITY           SKY/WX    TMP DP  RH WIND       PRES   REMARKS
JACKSON        NOT AVBL
CODY           MOSUNNY   81  45  28 CALM      30.05R
GREYBULL       PTSUNNY   92  42  17 N6        29.94S
6HR MIN TEMP:  87; 6HR MAX TEMP:  94;

WORLAND        PTSUNNY   87  41  19 N10       29.98R
6HR MIN TEMP:  84; 6HR MAX TEMP:  95; 6HR PCP: TRACE;

SHERIDAN       MOSUNNY   85  55  35 VRB5      29.98F
6HR MIN TEMP:  70; 6HR MAX TEMP:  91; 6HR PCP:  0.01;

BUFFALO        MOSUNNY   75  52  44 NW12      30.06R
6HR MIN TEMP:  75; 6HR MAX TEMP:  91;

GILLETTE       MOSUNNY   84  52  33 N14       29.98R
6HR MIN TEMP:  77; 6HR MAX TEMP:  95; 6HR PCP: TRACE;

HULETT         FAIR      81  50  34 MISG      30.01
NEWCASTLE      FAIR      95  32  11 W15G21    29.94  HX  90

$$
WYZ014>020-022>026-101>103-220100-
CENTRAL WYOMING

CITY           SKY/WX    TMP DP  RH WIND       PRES   REMARKS
BIG PINEY      MOSUNNY   82  36  19 W18G29    30.25R
6HR MIN TEMP:  79; 6HR MAX TEMP:  85;

PINEDALE       PTCLDY    79  34  19 W13G20    30.26S
DUBOIS         TSTM      57  43  58 W43G66    30.37R VSB 1/4
LANDER         SUNNY     88  32  13 SW12G21   30.06S
6HR MIN TEMP:  84; 6HR MAX TEMP:  91;

RIVERTON       MOSUNNY   86  37  17 NW20G29   30.08R
6HR MIN TEMP:  85; 6HR MAX TEMP:  93;

CASPER         SUNNY     92  29  10 W15G29    30.05S
6HR MIN TEMP:  88; 6HR MAX TEMP:  95;

DOUGLAS        SUNNY     94  32  11 W18G28    30.02F
6HR MIN TEMP:  89; 6HR MAX TEMP:  96;


$$
WYZ021-027>030-104>119-220100-
SOUTHERN WYOMING

CITY           SKY/WX    TMP DP  RH WIND       PRES   REMARKS
EVANSTON       SUNNY     82  33  17 SW17G29   30.25F
6HR MIN TEMP:  75; 6HR MAX TEMP:  84;

KEMMERER       CLEAR     81  30  16 W20G25    30.26F
FORT BRIDGER   FAIR      85  26  11 W22G30    30.27S
ROCK SPRINGS   SUNNY     85  30  13 W7        30.20F
6HR MIN TEMP:  82; 6HR MAX TEMP:  88;

DIXON          FAIR      90  26  10 W13G26    30.23S
RAWLINS        MOSUNNY   83  27  13 SW10      30.21F
6HR MIN TEMP:  81; 6HR MAX TEMP:  91; 6HR PCP: TRACE;

SARATOGA       FAIR      88  25  10 SW22      30.25F
LARAMIE        MOSUNNY   84  34  16 SW14G22   30.26S
6HR MIN TEMP:  79; 6HR MAX TEMP:  87;

CHEYENNE       PTSUNNY   83  37  19 SW18G30   30.18S
6HR MIN TEMP:  82; 6HR MAX TEMP:  91;

TORRINGTON     MOSUNNY   90  50  25 SE14      29.97S
6HR MIN TEMP:  86; 6HR MAX TEMP: 100;

PINE BLUFFS    FAIR      90  41  18 NE9       30.10S

$$



USA.gov is the U.S. government's official web portal to all federal, state and local government web resources and services.